This demonstration page uses our WeatherBlox Daily Observations layout. Learn more.

Left ArrowRight Arrow

53.62937, 11.41316

Hourly Observations for November 26, 2018

Temp ( °F °C ) Dew Point ( °F °C ) Humidity (%) Winds ( mph kmh ) Pressure ( in mb ) Visibility ( mi km ) Precip ( " mm )
6:50 am 06:50 Mostly Clear 32 0 30 -1 93 93 ENE 6 9 29.97 1015 7 11 N/A
7:20 am 07:20 Mostly Clear 32 0 30 -1 93 93 ENE 6 9 29.97 1015 30 48 N/A
7:50 am 07:50 Mostly Clear 32 0 32 0 100 100 ENE 3 6 29.97 1015 30 48 N/A
8:20 am 08:20 Partly Cloudy 34 1 34 1 100 100 ENE 3 6 30.00 1016 30 48 N/A
8:50 am 08:50 Partly Cloudy 34 1 32 0 93 93 NE 3 6 30.00 1016 30 48 N/A
9:20 am 09:20 Partly Cloudy 34 1 32 0 93 93 NE 5 7 30.00 1016 30 48 N/A
9:50 am 09:50 Mostly Cloudy 36 2 34 1 93 93 ENE 3 6 30.00 1016 30 48 N/A
10:20 am 10:20 Partly Cloudy 37 3 36 2 93 93 ENE 3 6 30.00 1016 30 48 N/A
10:50 am 10:50 Partly Cloudy 37 3 34 1 87 87 ENE 7 11 30.00 1016 30 48 N/A
11:20 am 11:20 Mostly Sunny 39 4 34 1 81 81 ENE 7 11 30.00 1016 7 11 N/A
11:50 am 11:50 Mostly Sunny 41 5 34 1 76 76 ENE 7 11 30.00 1016 7 11 N/A
12:20 pm 12:20 Mostly Sunny 41 5 32 0 70 70 ENE 9 15 30.00 1016 7 11 N/A
12:50 pm 12:50 Mostly Sunny 41 5 30 -1 66 66 ENE 9 15 29.97 1015 30 48 N/A
1:20 pm 13:20 Mostly Sunny 41 5 30 -1 66 66 E 9 15 29.97 1015 30 48 N/A
1:50 pm 13:50 Mostly Sunny 41 5 30 -1 66 66 ENE 10 17 29.97 1015 7 11 N/A
2:20 pm 14:20 Mostly Sunny 41 5 30 -1 66 66 ENE 9 15 30.00 1016 30 48 N/A
2:50 pm 14:50 Mostly Sunny 39 4 32 0 75 75 ENE 6 9 30.00 1016 30 48 N/A
3:20 pm 15:20 Mostly Sunny 37 3 32 0 81 81 ENE 6 9 30.00 1016 30 48 N/A
3:50 pm 15:50 Mostly Sunny 36 2 30 -1 81 81 ENE 5 7 30.00 1016 7 11 N/A
4:20 pm 16:20 Mostly Clear 36 2 30 -1 81 81 NE 6 9 30.00 1016 30 48 N/A
4:50 pm 16:50 Partly Cloudy 32 0 30 -1 93 93 NE 7 11 30.00 1016 30 48 N/A
5:20 pm 17:20 Mostly Cloudy 34 1 32 0 93 93 ENE 5 7 30.00 1016 30 48 N/A
5:50 pm 17:50 Mostly Cloudy 37 3 34 1 87 87 ENE 6 9 30.00 1016 30 48 N/A
6:20 pm 18:20 Mostly Cloudy 37 3 32 0 81 81 E 2 4 30.03 1017 30 48 N/A
6:50 pm 18:50 Mostly Cloudy 37 3 32 0 81 81 ENE 3 6 30.03 1017 30 48 N/A

Powered by AerisWeather